Weather History for Harvey, ND

Change the Weather History Date:

Monday, January 7, 2013

  Actual Average (KRUG) Record (KRUG)
Temperature  
Mean Temperature 19 °F -  
Max Temperature 32 °F 11 °F 41 °F (1963)
Min Temperature 6 °F -8 °F -31 °F (1966)
Degree Days  
Heating Degree Days 46    
Moisture  
Dew Point 17 °F    
Average Humidity 79    
Maximum Humidity 100    
Minimum Humidity 64    
Precipitation  
Precipitation 0.00 in - - ()
Sea Level Pressure  
Sea Level Pressure 29.75 in    
Wind  
Wind Speed 15 mph (WSW)    
Max Wind Speed 21 mph    
Max Gust Speed 30 mph    
Visibility 10 miles    
Events      
Averages and records for this station are not official NWS values.
T = Trace of Precipitation, MM = Missing Value Source: NWS Daily Summary

Daily Weather History Graph

Daily Weather History Graph

Search for Another Location

Airport:

Trip Planner

Search our weather history database for the weather conditions in past years. The results will help you decide how hot, cold, wet, or windy it might be!

Date:

Astronomy

Jan. 07, 2013 Rise Set
Actual Time 8:27 AM CST 5:05 PM CST
Civil Twilight 7:52 AM CST 5:40 PM CST
Nautical Twilight 7:13 AM CST 6:19 PM CST
Astronomical Twilight 6:35 AM CST 6:56 PM CST
Moon 3:48 AM CST (1/7) 1:21 PM CST (1/7)
Length of Visible Light 9h 48m
Length of Day
8h 37m
Waning Crescent, 22% of the Moon is Illuminated
Jan 7
Waning Crescent
Jan 11
New
Jan 18
First Quarter
Jan 26
Full
Feb 3
Last Quarter

Hourly Weather History & Observations

Time (CST) Temp. Windchill Dew Point Humidity Pressure Visibility Wind Dir Wind Speed Gust Speed Precip Events Conditions
12:15 AM 28.4 °F 17.5 °F 23.0 °F 80% 29.66 in 10.0 mi WSW 13.8 mph - N/A   Scattered Clouds
12:35 AM 32.0 °F 21.2 °F 23.0 °F 69% 29.65 in 10.0 mi West 16.1 mph - N/A   Partly Cloudy
12:55 AM 32.0 °F 21.2 °F 24.8 °F 75% 29.66 in 10.0 mi WSW 16.1 mph - N/A   Partly Cloudy
1:15 AM 32.0 °F 20.8 °F 24.8 °F 75% 29.66 in 10.0 mi West 17.3 mph - N/A   Clear
1:35 AM 30.2 °F 18.5 °F 23.0 °F 75% 29.67 in 10.0 mi WSW 17.3 mph 24.2 mph N/A   Clear
1:55 AM 30.2 °F 17.4 °F 23.0 °F 75% 29.66 in 10.0 mi WSW 20.7 mph 25.3 mph N/A   Clear
2:15 AM 30.2 °F 17.8 °F 23.0 °F 75% 29.67 in 10.0 mi WSW 19.6 mph 27.6 mph N/A   Clear
2:35 AM 28.4 °F 15.4 °F 23.0 °F 80% 29.68 in 10.0 mi West 19.6 mph 26.5 mph N/A   Clear
2:55 AM 28.4 °F 15.4 °F 21.2 °F 74% 29.69 in 10.0 mi West 19.6 mph 24.2 mph N/A   Clear
3:15 AM 28.4 °F 15.8 °F 21.2 °F 74% 29.68 in 10.0 mi West 18.4 mph 25.3 mph N/A   Clear
3:35 AM 28.4 °F 15.4 °F 21.2 °F 74% 29.68 in 10.0 mi West 19.6 mph - N/A   Clear
3:55 AM 28.4 °F 15.4 °F 21.2 °F 74% 29.68 in 10.0 mi West 19.6 mph 27.6 mph N/A   Clear
4:15 AM 28.4 °F 15.1 °F 21.2 °F 74% 29.68 in 10.0 mi West 20.7 mph 26.5 mph N/A   Clear
4:35 AM 28.4 °F 15.4 °F 21.2 °F 74% 29.69 in 10.0 mi West 19.6 mph 29.9 mph N/A   Clear
4:55 AM 26.6 °F 13.1 °F 21.2 °F 80% 29.69 in 10.0 mi West 19.6 mph 24.2 mph N/A   Clear
5:15 AM 26.6 °F 13.8 °F 21.2 °F 80% 29.70 in 10.0 mi West 17.3 mph 24.2 mph N/A   Clear
5:35 AM 26.6 °F 14.3 °F 19.4 °F 74% 29.69 in 10.0 mi WSW 16.1 mph - N/A   Clear
5:55 AM 24.8 °F 11.9 °F 19.4 °F 80% 29.69 in 10.0 mi WSW 16.1 mph - N/A   Clear
6:35 AM 24.8 °F 11.9 °F 19.4 °F 80% 29.70 in 10.0 mi West 16.1 mph 24.2 mph N/A   Clear
6:55 AM 24.8 °F 11.1 °F 19.4 °F 80% 29.70 in 10.0 mi WSW 18.4 mph 21.9 mph N/A   Clear
7:15 AM 26.6 °F 13.1 °F 19.4 °F 74% 29.70 in 10.0 mi West 19.6 mph 25.3 mph N/A   Clear
7:35 AM 26.6 °F 13.1 °F 19.4 °F 74% 29.70 in 10.0 mi WSW 19.6 mph 24.2 mph N/A   Clear
7:55 AM 24.8 °F 11.5 °F 19.4 °F 80% 29.71 in 10.0 mi WSW 17.3 mph - N/A   Clear
8:15 AM 24.8 °F 11.5 °F 19.4 °F 80% 29.72 in 10.0 mi WSW 17.3 mph - N/A   Clear
8:35 AM 24.8 °F 11.9 °F 17.6 °F 74% 29.73 in 10.0 mi WSW 16.1 mph - N/A   Clear
8:55 AM 24.8 °F 10.7 °F 17.6 °F 74% 29.74 in 10.0 mi WSW 19.6 mph - N/A   Clear
9:15 AM 24.8 °F 10.7 °F 17.6 °F 74% 29.75 in 10.0 mi WSW 19.6 mph - N/A   Clear
9:35 AM 24.8 °F 11.9 °F 17.6 °F 74% 29.76 in 10.0 mi West 16.1 mph - N/A   Clear
9:55 AM 24.8 °F 12.9 °F 17.6 °F 74% 29.77 in 10.0 mi West 13.8 mph - N/A   Clear
10:15 AM 24.8 °F 12.9 °F 17.6 °F 74% 29.77 in 10.0 mi WSW 13.8 mph - N/A   Clear
10:35 AM 24.8 °F 13.4 °F 17.6 °F 74% 29.79 in 10.0 mi WSW 12.7 mph - N/A   Clear
10:55 AM 24.8 °F 13.4 °F 17.6 °F 74% 29.79 in 10.0 mi WSW 12.7 mph - N/A   Clear
11:15 AM 26.6 °F 15.7 °F 17.6 °F 69% 29.79 in 10.0 mi West 12.7 mph - N/A   Clear
11:35 AM 26.6 °F 14.7 °F 19.4 °F 74% 29.78 in 10.0 mi West 15.0 mph - N/A   Clear
11:55 AM 26.6 °F 16.2 °F 19.4 °F 74% 29.78 in 10.0 mi West 11.5 mph 18.4 mph N/A   Clear
12:15 PM 28.4 °F 18.5 °F 19.4 °F 69% 29.78 in 10.0 mi West 11.5 mph 17.3 mph N/A   Clear
12:35 PM 28.4 °F 18.0 °F 19.4 °F 69% 29.78 in 10.0 mi WSW 12.7 mph - N/A   Clear
1:15 PM 28.4 °F 18.0 °F 19.4 °F 69% 29.78 in 10.0 mi West 12.7 mph - N/A   Clear
1:35 PM 28.4 °F 18.5 °F 19.4 °F 69% 29.79 in 10.0 mi West 11.5 mph - N/A   Clear
1:55 PM 30.2 °F 19.8 °F 19.4 °F 64% 29.79 in 10.0 mi WNW 13.8 mph - N/A   Clear
2:15 PM 30.2 °F 19.3 °F 19.4 °F 64% 29.80 in 10.0 mi WNW 15.0 mph - N/A   Clear
2:35 PM 28.4 °F 17.5 °F 19.4 °F 69% 29.80 in 10.0 mi WNW 13.8 mph 19.6 mph N/A   Clear
2:55 PM 28.4 °F 18.0 °F 19.4 °F 69% 29.81 in 10.0 mi West 12.7 mph - N/A   Clear
3:15 PM 28.4 °F 19.1 °F 19.4 °F 69% 29.81 in 10.0 mi West 10.4 mph - N/A   Clear
3:35 PM 28.4 °F 20.4 °F 19.4 °F 69% 29.81 in 10.0 mi West 8.1 mph - N/A   Clear
3:55 PM 26.6 °F 19.1 °F 19.4 °F 74% 29.81 in 10.0 mi West 6.9 mph - N/A   Clear
4:15 PM 24.8 °F 15.3 °F 17.6 °F 74% 29.82 in 10.0 mi WSW 9.2 mph - N/A   Clear
4:35 PM 23.0 °F 13.9 °F 17.6 °F 80% 29.81 in 10.0 mi SW 8.1 mph - N/A   Clear
5:15 PM 19.4 °F 9.5 °F 15.8 °F 86% 29.81 in 10.0 mi WSW 8.1 mph - N/A   Clear
5:35 PM 17.6 °F 5.0 °F 15.8 °F 93% 29.81 in 10.0 mi WSW 11.5 mph - N/A   Clear
5:55 PM 19.4 °F 8.6 °F 15.8 °F 86% 29.82 in 10.0 mi WSW 9.2 mph - N/A   Clear
6:15 PM 17.6 °F 6.4 °F 14.0 °F 86% 29.82 in 10.0 mi WSW 9.2 mph - N/A   Clear
6:35 PM 15.8 °F 5.1 °F 14.0 °F 93% 29.82 in 10.0 mi WSW 8.1 mph - N/A   Clear
6:55 PM 15.8 °F 6.1 °F 12.2 °F 86% 29.82 in 10.0 mi WSW 6.9 mph - N/A   Clear
7:15 PM 14.0 °F 2.0 °F 10.4 °F 86% 29.82 in 10.0 mi SSW 9.2 mph - N/A   Clear
7:35 PM 14.0 °F 2.9 °F 12.2 °F 93% 29.82 in 10.0 mi SW 8.1 mph - N/A   Clear
7:55 PM 14.0 °F 2.0 °F 12.2 °F 93% 29.82 in 10.0 mi SW 9.2 mph - N/A   Clear
8:15 PM 14.0 °F 2.0 °F 10.4 °F 86% 29.81 in 10.0 mi SW 9.2 mph - N/A   Clear
8:35 PM 15.8 °F 5.1 °F 14.0 °F 93% 29.81 in 10.0 mi SW 8.1 mph - N/A   Clear
8:55 PM 14.0 °F 1.2 °F 12.2 °F 93% 29.81 in 10.0 mi SW 10.4 mph - N/A   Clear
9:15 PM 10.4 °F -2.4 °F 8.6 °F 92% 29.80 in 10.0 mi SSW 9.2 mph - N/A   Clear
9:35 PM 14.0 °F 2.0 °F 10.4 °F 86% 29.80 in 10.0 mi SW 9.2 mph - N/A   Clear
9:55 PM 14.0 °F 2.9 °F 10.4 °F 86% 29.79 in 10.0 mi SSW 8.1 mph - N/A   Clear
10:15 PM 14.0 °F 6.5 °F 12.2 °F 93% 29.79 in 10.0 mi South 4.6 mph - N/A   Clear
10:35 PM 14.0 °F 6.5 °F 12.2 °F 93% 29.78 in 10.0 mi SSW 4.6 mph - N/A   Clear
10:55 PM 8.6 °F 0.1 °F 8.6 °F 100% 29.78 in 10.0 mi South 4.6 mph - N/A   Clear
11:15 PM 6.8 °F -2.0 °F 6.8 °F 100% 29.77 in 10.0 mi South 4.6 mph - N/A   Clear
11:35 PM 8.6 °F 2.0 °F 8.6 °F 100% 29.77 in 10.0 mi South 3.5 mph - N/A   Clear
11:55 PM 6.8 °F -5.9 °F 5.0 °F 92% 29.76 in 10.0 mi SSE 8.1 mph - N/A   Clear